"2016-02-23 00:00:00",1398171,11.96,66.36,6.164,1.25,8.29,100.6985,1.082,2.385,58.7,0,109.8,13.3,1.84,28.4
"2016-02-23 00:00:30",1398172,11.64,68.94,6.814,1.27,7.906,100.6997,1.085,2.367,58.9,0,109.8,13.3,1.84,30.9
"2016-02-23 00:01:00",1398173,12.05,65.37,6.788,1.187,8.26,100.6985,1.082,2.366,59.06,0,109.8,13.3,1.84,27.4
"2016-02-23 00:01:30",1398174,11.9,65.61,6.164,1.266,7.845,100.6937,1.069,2.343,59.61,0,109.8,13.3,1.83,27.6
"2016-02-23 00:02:00",1398175,12.17,64.22,7.306,1.279,7.85,100.6796,1.033,2.333,60.14,0,109.8,13.3,1.79,26.2
"2016-02-23 00:02:30",1398176,12.2,62.69,6.794,1.257,7.999,100.6677,1.003,2.315,60.7,0,109.8,13.31,1.76,24.7
"2016-02-23 00:03:00",1398177,11.75,63.88,6.703,1.355,8.26,100.6643,0.994,2.316,60.78,0,109.8,13.3,1.75,25.9
"2016-02-23 00:03:30",1398178,11.79,64.03,6.329,1.205,8.38,100.6544,0.969,2.289,60.57,0,109.8,13.31,1.72,26.0
"2016-02-23 00:04:00",1398179,12.23,63.24,6.388,1.291,8.06,100.64,0.932,2.251,60.52,0,109.8,13.31,1.69,25.2
"2016-02-23 00:04:30",1398180,12.25,61.92,7.105,1.217,7.822,100.6306,0.909,2.234,60.3,0,109.8,13.29,1.66,23.9
"2016-02-23 00:05:00",1398181,12.1,61.79,6.687,1.245,8.2,100.6323,0.913,2.2,60.16,0,109.7,13.29,1.67,23.8
"2016-02-23 00:05:30",1398182,11.91,62.87,6.889,1.314,8.49,100.6253,0.895,2.201,60.18,0,109.7,13.3,1.65,24.9
"2016-02-23 00:06:00",1398183,12.18,64.82,6.539,1.265,8.49,100.6194,0.88,2.184,60.22,0,109.8,13.3,1.63,26.8
"2016-02-23 00:06:30",1398184,12.21,65.49,6.318,1.169,8.25,100.6191,0.879,2.186,60.15,0,109.7,13.3,1.63,27.5
"2016-02-23 00:07:00",1398185,11.98,65.17,7.039,1.209,8.1,100.6179,0.876,2.171,60.12,0,109.7,13.29,1.63,27.2
"2016-02-23 00:07:30",1398186,11.61,64.4,6.483,1.29,8.16,100.6089,0.853,2.138,60.19,0,109.7,13.3,1.61,26.4
"2016-02-23 00:08:00",1398187,11.61,64.17,6.32,1.253,8.25,100.6055,0.844,2.145,60.35,0,109.7,13.3,1.60,26.2
"2016-02-23 00:08:30",1398188,11.72,63.64,6.139,1.291,8.35,100.6052,0.844,2.123,60.45,0,109.7,13.29,1.60,25.6
"2016-02-23 00:09:00",1398189,11.73,64.55,5.983,1.201,8.19,100.6047,0.842,2.123,60.46,0,109.7,13.29,1.60,26.6
"2016-02-23 00:09:30",1398190,11.94,64.2,6.167,1.212,8.35,100.6052,0.844,2.134,60.55,0,109.7,13.3,1.60,26.2
"2016-02-23 00:10:00",1398191,12.26,64.77,6.593,1.269,7.923,100.6052,0.844,2.13,60.78,0,109.7,13.3,1.60,26.8
"2016-02-23 00:10:30",1398192,12.75,62.13,6.408,1.214,7.876,100.5984,0.826,2.084,61.08,0,109.7,13.3,1.58,24.1
"2016-02-23 00:11:00",1398193,12.55,63.13,6.422,1.292,8.12,100.5902,0.805,2.082,61.35,0,109.7,13.3,1.56,25.1
"2016-02-23 00:11:30",1398194,12.6,61.58,6.763,1.309,8.11,100.5874,0.798,2.069,61.47,0,109.7,13.31,1.55,23.6
"2016-02-23 00:12:00",1398195,12.6,61.16,6.201,1.351,8.23,100.5738,0.764,2.066,61.78,0,109.7,13.31,1.52,23.2
"2016-02-23 00:12:30",1398196,12.54,63.13,6.652,1.209,8.56,100.5738,0.764,2.06,61.68,0,109.7,13.31,1.52,25.1
"2016-02-23 00:13:00",1398197,12.43,64.12,6.254,1.303,8.12,100.5747,0.766,2.044,61.45,0,109.7,13.31,1.52,26.1
"2016-02-23 00:13:30",1398198,12.8,64.28,6.343,1.175,8.13,100.5744,0.765,2.023,61.68,0,109.7,13.31,1.52,26.3
"2016-02-23 00:14:00",1398199,13.03,63.38,6.251,1.392,8.42,100.5704,0.755,2,62.01,0,109.7,13.31,1.51,25.4
"2016-02-23 00:14:30",1398200,12.95,63.08,6.622,1.256,7.885,100.5617,0.733,1.989,62.13,0,109.7,13.31,1.49,25.1
"2016-02-23 00:15:00",1398201,13.03,66.04,6.329,1.192,8.23,100.5557,0.718,2,62.21,0,109.7,13.31,1.47,28.0
"2016-02-23 00:15:30",1398202,13.26,64.63,7.154,1.345,8.46,100.5552,0.716,1.981,62.34,0,109.7,13.31,1.47,26.6
"2016-02-23 00:16:00",1398203,12.71,65.84,6.457,1.206,8.04,100.5464,0.694,1.996,62.53,0,109.7,13.31,1.45,27.8
"2016-02-23 00:16:30",1398204,13.07,67.97,6.562,1.225,8.45,100.5433,0.686,1.978,62.59,0,109.7,13.31,1.44,30.0
"2016-02-23 00:17:00",1398205,12.76,68.63,6.333,1.316,8.19,100.5433,0.686,1.962,62.6,0,109.7,13.31,1.44,30.6
"2016-02-23 00:17:30",1398206,13.46,65.71,6.532,1.203,8.03,100.5433,0.686,1.933,62.83,0,109.7,13.31,1.44,27.7
"2016-02-23 00:18:00",1398207,13.55,67.93,6.437,1.254,8,100.5416,0.681,1.943,63.12,0,109.7,13.31,1.44,29.9
"2016-02-23 00:18:30",1398208,12.96,66.82,6.73,1.248,8.19,100.5317,0.656,1.941,63.26,0,109.7,13.31,1.41,28.8
"2016-02-23 00:19:00",1398209,12.95,70.16,6.869,1.252,8.37,100.5266,0.643,1.937,63.38,0,109.7,13.31,1.40,32.2
"2016-02-23 00:19:30",1398210,13.15,70.2,6.529,1.194,7.881,100.5178,0.621,1.903,63.45,0,109.7,13.31,1.37,32.2
"2016-02-23 00:20:00",1398211,13.19,72.14,7.04,1.251,7.641,100.5099,0.601,1.906,63.64,0,109.7,13.31,1.35,34.1
"2016-02-23 00:20:30",1398212,12.59,69.81,6.912,1.448,7.999,100.5093,0.599,1.892,63.67,0,109.7,13.31,1.35,31.8
"2016-02-23 00:21:00",1398213,12.79,64.52,7.024,1.297,7.98,100.5093,0.599,1.886,64.07,0,109.7,13.31,1.35,26.5
"2016-02-23 00:21:30",1398214,12.83,65.26,6.382,1.239,8.03,100.5093,0.599,1.872,64.34,0,109.7,13.31,1.35,27.3
"2016-02-23 00:22:00",1398215,13.06,68.84,6.515,1.237,7.936,100.5042,0.586,1.9,64.49,0,109.7,13.31,1.34,30.8
"2016-02-23 00:22:30",1398216,12.95,70.23,6.6,1.198,7.718,100.4929,0.557,1.877,64.61,0,109.7,13.31,1.31,32.2
"2016-02-23 00:23:00",1398217,12.84,63.69,6.831,1.231,7.518,100.479,0.522,1.824,64.89,0,109.7,13.31,1.28,25.7
"2016-02-23 00:23:30",1398218,12.76,64.94,6.71,1.306,7.926,100.4754,0.513,1.827,65.21,0,109.7,13.3,1.27,26.9
"2016-02-23 00:24:00",1398219,12.26,64.64,6.411,1.305,7.764,100.4751,0.512,1.819,65.52,0,109.7,13.31,1.27,26.6
"2016-02-23 00:24:30",1398220,12.46,66.13,6.57,1.233,7.905,100.4581,0.469,1.799,65.78,0,109.7,13.31,1.22,28.1
"2016-02-23 00:25:00",1398221,12.02,69.02,6.43,1.3,7.718,100.4451,0.435,1.805,65.97,0,109.7,13.31,1.19,31.0
"2016-02-23 00:25:30",1398222,12.3,68.06,6.598,1.262,7.658,100.444,0.432,1.774,66.29,0,109.7,13.31,1.19,30.1
"2016-02-23 00:26:00",1398223,12.01,67.68,6.504,1.282,7.689,100.4412,0.425,1.745,66.69,0,109.7,13.31,1.18,29.7
"2016-02-23 00:26:30",1398224,11.55,68.59,6.795,1.344,7.627,100.4267,0.389,1.723,66.92,0,109.7,13.31,1.14,30.6
"2016-02-23 00:27:00",1398225,12.08,67.54,6.852,1.264,7.254,100.4129,0.353,1.718,67.14,0,109.7,13.31,1.11,29.5
"2016-02-23 00:27:30",1398226,12.66,71.52,6.333,1.263,7.838,100.4143,0.357,1.689,67.55,0,109.7,13.31,1.11,33.5
"2016-02-23 00:28:00",1398227,12.49,71.2,6.422,1.352,7.342,100.3979,0.315,1.7,68.01,0,109.7,13.31,1.07,33.2
"2016-02-23 00:28:30",1398228,11.53,64.37,6.491,1.226,7.331,100.3863,0.285,1.643,68.33,0,109.7,13.32,1.04,26.4
"2016-02-23 00:29:00",1398229,11.67,69.11,7.262,1.492,7.228,100.3869,0.287,1.629,68.59,0,109.7,13.32,1.04,31.1
"2016-02-23 00:29:30",1398230,11.63,66.23,7.39,1.221,7.218,100.3724,0.25,1.603,68.95,0,109.7,13.32,1.00,28.2
"2016-02-23 00:30:00",1398231,11.7,58.72,6.62,1.301,7.084,100.3594,0.217,1.588,69.33,0,109.7,13.32,0.97,20.7
"2016-02-23 00:30:30",1398232,11.5,64.2,6.555,1.248,7.653,100.3447,0.179,1.547,69.77,0,109.7,13.32,0.93,26.2
"2016-02-23 00:31:00",1398233,10.5,66.66,6.572,1.578,7.642,100.3258,0.131,1.529,69.93,0,109.7,13.32,0.88,28.7
"2016-02-23 00:31:30",1398234,10.79,64.88,6.596,1.236,7.152,100.3232,0.125,1.469,70.08,0,109.7,13.32,0.88,26.9
"2016-02-23 00:32:00",1398235,11.31,64.65,7.172,1.352,7.154,100.3054,0.079,1.458,70.41,0,109.7,13.32,0.83,26.7
"2016-02-23 00:32:30",1398236,10.93,69.15,6.723,1.32,7.084,100.2924,0.046,1.424,70.75,0,109.7,13.32,0.80,31.2
"2016-02-23 00:33:00",1398237,11.15,64.17,8.12,1.252,7.274,100.2904,0.041,1.37,70.98,0,109.7,13.32,0.79,26.2
"2016-02-23 00:33:30",1398238,10.97,58.19,8.39,1.28,7.309,100.2697,-0.012,1.361,71.27,0,109.7,13.32,0.74,20.2
"2016-02-23 00:34:00",1398239,10.31,63.28,7.032,1.277,6.993,100.2618,-0.032,1.363,71.5,0,109.7,13.32,0.72,25.3
"2016-02-23 00:34:30",1398240,11.87,63.44,8.82,1.164,7.066,100.2604,-0.036,1.305,71.67,0,109.7,13.32,0.72,25.4
"2016-02-23 00:35:00",1398241,11.1,63.43,6.925,1.392,7.02,100.246,-0.072,1.281,71.97,0,109.7,13.32,0.68,25.4
"2016-02-23 00:35:30",1398242,10.91,57.9,7.723,1.331,7.065,100.231,-0.111,1.261,72.29,0,109.7,13.32,0.64,19.9
"2016-02-23 00:36:00",1398243,10.12,60.73,7.118,1.425,7.21,100.229,-0.116,1.223,72.54,0,109.7,13.32,0.64,22.7
"2016-02-23 00:36:30",1398244,10.29,62.28,7.198,1.132,7.23,100.2151,-0.151,1.205,72.82,0,109.7,13.32,0.60,24.3
"2016-02-23 00:37:00",1398245,10.92,62.26,6.899,1.34,6.902,100.2049,-0.177,1.2,73.18,0,109.7,13.32,0.57,24.3
"2016-02-23 00:37:30",1398246,11.43,61.72,6.509,1.3,6.854,100.197,-0.197,1.157,73.46,0,109.7,13.32,0.55,23.7
"2016-02-23 00:38:00",1398247,10.91,60.85,7.36,1.309,7.132,100.186,-0.225,1.124,73.79,0,109.7,13.32,0.53,22.8
"2016-02-23 00:38:30",1398248,11.26,63.12,7.461,1.352,6.777,100.1659,-0.277,1.094,74,0,109.7,13.32,0.47,25.1
"2016-02-23 00:39:00",1398249,11.29,66.53,6.388,1.232,7.056,100.1647,-0.28,1.082,74.22,0,109.7,13.32,0.47,28.5
"2016-02-23 00:39:30",1398250,10.52,63.65,8.23,1.196,7.347,100.1636,-0.282,1.073,74.35,0,109.7,13.32,0.47,25.7
"2016-02-23 00:40:00",1398251,10.1,57.78,6.797,1.368,6.897,100.15,-0.317,1.044,74.43,0,109.7,13.32,0.43,19.8
"2016-02-23 00:40:30",1398252,9.78,52.56,7.477,1.305,7.126,100.1381,-0.347,1.001,74.51,0,109.7,13.31,0.40,14.6
"2016-02-23 00:41:00",1398253,10.49,56.67,6.685,1.222,6.755,100.1339,-0.358,0.991,74.81,0,109.7,13.32,0.39,18.7
"2016-02-23 00:41:30",1398254,10.83,58.31,6.258,1.336,6.858,100.1353,-0.355,0.958,75.31,0,109.7,13.32,0.40,20.3
"2016-02-23 00:42:00",1398255,11.45,57.6,6.671,1.201,6.769,100.1214,-0.39,0.937,75.83,0,109.6,13.32,0.36,19.6
"2016-02-23 00:42:30",1398256,11,55.78,7.446,1.361,6.983,100.1152,-0.406,0.941,76.33,0,109.7,13.32,0.34,17.8
"2016-02-23 00:43:00",1398257,10.59,53.01,6.026,1.481,7.093,100.1016,-0.441,0.914,76.83,0,109.6,13.32,0.31,15.0
"2016-02-23 00:43:30",1398258,10.87,62.78,8.25,1.227,6.999,100.0855,-0.482,0.873,77.19,0,109.7,13.32,0.27,24.8
"2016-02-23 00:44:00",1398259,11.41,59.85,6.714,1.292,6.626,100.0702,-0.521,0.863,77.43,0,109.7,13.32,0.23,21.8
"2016-02-23 00:44:30",1398260,11.65,57.12,6.03,1.225,6.906,100.0614,-0.543,0.836,77.73,0,109.7,13.32,0.21,19.1
"2016-02-23 00:45:00",1398261,10.62,50.05,6.89,1.298,7.016,100.0456,-0.583,0.794,78.07,0,109.6,13.33,0.17,12.0
"2016-02-23 00:45:30",1398262,9.58,50.96,7.454,1.541,7.002,100.0328,-0.616,0.757,78.43,0,109.7,13.33,0.13,13.0
"2016-02-23 00:46:00",1398263,9.33,51.01,6.262,1.29,6.905,100.0156,-0.66,0.766,78.8,0,109.6,13.33,0.09,13.0
"2016-02-23 00:46:30",1398264,10.03,54.52,7.03,1.275,6.967,100,-0.7,0.688,79.1,0,109.6,13.33,0.05,16.5
"2016-02-23 00:47:00",1398265,9.78,54.26,6.672,1.274,6.587,99.99688,-0.708,0.64,79.3,0,109.6,13.33,0.04,16.3
"2016-02-23 00:47:30",1398266,9.59,56.47,7.964,1.358,7.032,99.98329,-0.742,0.635,79.5,0,109.6,13.33,0.01,18.5
"2016-02-23 00:48:00",1398267,9.26,52.32,6.801,1.303,6.68,99.96914,-0.778,0.597,79.63,0,109.6,13.33,-0.03,14.3
"2016-02-23 00:48:30",1398268,9.66,53.15,6.957,1.179,6.804,99.96603,-0.786,0.584,79.85,0,109.6,13.33,-0.04,15.2
"2016-02-23 00:49:00",1398269,10.15,51.74,6.186,1.22,6.559,99.96037,-0.801,0.584,80.2,0,109.6,13.33,-0.05,13.7
"2016-02-23 00:49:30",1398270,10.3,52.95,7.196,1.243,6.734,99.94678,-0.835,0.556,80.5,0,109.6,13.33,-0.09,15.0
"2016-02-23 00:50:00",1398271,10.47,53.7,6.384,1.185,6.828,99.93263,-0.871,0.504,80.8,0,109.6,13.33,-0.12,15.7
"2016-02-23 00:50:30",1398272,10.03,53.78,7.066,1.247,6.743,99.93093,-0.876,0.492,81,0,109.6,13.33,-0.13,15.8
"2016-02-23 00:51:00",1398273,10.34,55.52,6.774,1.227,6.518,99.91848,-0.907,0.466,81.1,0,109.6,13.33,-0.16,17.5
"2016-02-23 00:51:30",1398274,9.94,53.85,6.412,1.234,7.163,99.908,-0.934,0.439,81.2,0,109.6,13.33,-0.19,15.8
"2016-02-23 00:52:00",1398275,9.94,56.31,6.278,1.309,6.774,99.89979,-0.955,0.446,81.3,0,109.6,13.33,-0.21,18.3
"2016-02-23 00:52:30",1398276,9.88,55.99,6.856,1.238,6.674,99.89809,-0.959,0.391,81.4,0,109.6,13.34,-0.21,18.0
"2016-02-23 00:53:00",1398277,9.95,55.91,6.372,1.252,6.655,99.89753,-0.961,0.37,81.5,0,109.6,13.34,-0.21,17.9
"2016-02-23 00:53:30",1398278,10.04,55.14,6.307,1.197,6.567,99.88931,-0.982,0.368,81.6,0,109.6,13.34,-0.23,17.1
"2016-02-23 00:54:00",1398279,9.83,58.32,6.8,1.276,6.643,99.88168,-1.001,0.328,81.8,0,109.6,13.34,-0.25,20.3
"2016-02-23 00:54:30",1398280,9.63,58.05,6.625,1.247,6.859,99.87884,-1.008,0.331,81.9,0,109.6,13.34,-0.26,20.0
"2016-02-23 00:55:00",1398281,9.74,58.6,6.13,1.275,6.889,99.86978,-1.032,0.344,82,0,109.6,13.34,-0.28,20.6
"2016-02-23 00:55:30",1398282,10.19,55.03,6.804,1.217,6.338,99.86526,-1.043,0.306,82.1,0,109.6,13.33,-0.29,17.0
"2016-02-23 00:56:00",1398283,10.45,55.55,6.269,1.168,6.286,99.86553,-1.042,0.296,82.3,0,109.6,13.33,-0.29,17.5
"2016-02-23 00:56:30",1398284,10.4,53.5,6.281,1.227,6.277,99.86553,-1.042,0.285,82.5,0,109.6,13.33,-0.29,15.5
"2016-02-23 00:57:00",1398285,9.98,54.35,6.239,1.273,6.622,99.86497,-1.044,0.272,82.8,0,109.6,13.33,-0.30,16.3
"2016-02-23 00:57:30",1398286,10.01,55.36,6.641,1.248,6.861,99.86327,-1.048,0.287,83.1,0,109.7,13.33,-0.30,17.4
"2016-02-23 00:58:00",1398287,9.99,58.12,6.508,1.218,6.622,99.85167,-1.078,0.316,83.4,0,109.6,13.33,-0.33,20.1
"2016-02-23 00:58:30",1398288,9.88,59.66,6.157,1.21,6.814,99.84799,-1.087,0.268,83.5,0,109.6,13.33,-0.34,21.7
"2016-02-23 00:59:00",1398289,9.82,60.29,6.185,1.236,6.822,99.84119,-1.104,0.236,83.7,0,109.6,13.33,-0.36,22.3
"2016-02-23 00:59:30",1398290,9.73,60.99,6.449,1.269,6.513,99.83242,-1.127,0.217,83.7,0,109.6,13.33,-0.38,23.0
"2016-02-23 01:00:00",1398291,9.86,64.46,6.205,1.239,6.74,99.83891,-1.11,0.197,83.7,0,109.6,13.33,-0.36,26.5
"2016-02-23 01:00:30",1398292,10,62.99,6.378,1.145,6.695,99.83778,-1.113,0.192,83.7,0,109.6,13.34,-0.37,25.0
"2016-02-23 01:01:00",1398293,9.6,58.37,6.668,1.253,6.394,99.83184,-1.128,0.18,83.7,0,109.6,13.34,-0.38,20.4
"2016-02-23 01:01:30",1398294,9.57,59.76,6.393,1.229,6.345,99.82645,-1.142,0.172,83.7,0,109.6,13.34,-0.39,21.8
"2016-02-23 01:02:00",1398295,9.56,59.95,6.425,1.214,6.544,99.82448,-1.147,0.161,83.8,0,109.6,13.34,-0.40,22.0
"2016-02-23 01:02:30",1398296,9.66,58.55,6.605,1.322,6.119,99.82674,-1.141,0.132,83.8,0,109.6,13.34,-0.39,20.5
"2016-02-23 01:03:00",1398297,9.83,60.57,6.208,1.224,6.516,99.8273,-1.14,0.144,83.9,0,109.6,13.34,-0.39,22.6
"2016-02-23 01:03:30",1398298,9.72,62.47,6.324,1.166,6.635,99.82787,-1.138,0.126,84,0,109.7,13.34,-0.39,24.5
"2016-02-23 01:04:00",1398299,9.55,60.51,6.385,1.245,6.424,99.81994,-1.159,0.149,84,0,109.6,13.34,-0.41,22.5
"2016-02-23 01:04:30",1398300,9.73,60.2,6.359,1.223,6.344,99.81287,-1.177,0.12,84.1,0,109.6,13.34,-0.43,22.2
"2016-02-23 01:05:00",1398301,9.49,58.21,6.287,1.2,6.254,99.81314,-1.176,0.101,84.2,0,109.6,13.34,-0.43,20.2
"2016-02-23 01:05:30",1398302,9.58,60.52,6.273,1.208,6.195,99.81314,-1.176,0.079,84.3,0,109.6,13.34,-0.43,22.5
"2016-02-23 01:06:00",1398303,9.73,58.52,6.433,1.217,6.227,99.81314,-1.176,0.097,84.4,0,109.6,13.34,-0.43,20.5
"2016-02-23 01:06:30",1398304,9.49,59.48,6.47,1.292,6.369,99.81314,-1.176,0.086,84.5,0,109.6,13.34,-0.43,21.5
"2016-02-23 01:07:00",1398305,9.59,63.28,6.203,1.251,6.522,99.80833,-1.188,0.109,84.7,0,109.6,13.34,-0.44,25.3
"2016-02-23 01:07:30",1398306,9.69,63.52,6.285,1.156,6.221,99.79785,-1.215,0.083,84.8,0,109.6,13.34,-0.47,25.5
"2016-02-23 01:08:00",1398307,9.47,63.44,6.488,1.242,6.168,99.7936,-1.226,0.087,85,0,109.6,13.34,-0.48,25.4
"2016-02-23 01:08:30",1398308,9.74,63.89,6.287,1.172,6.156,99.78172,-1.256,0.057,85.1,0,109.6,13.34,-0.51,25.9
"2016-02-23 01:09:00",1398309,9.51,62.21,6.708,1.25,5.998,99.78002,-1.26,0.035,85.2,0,109.6,13.34,-0.51,24.2
"2016-02-23 01:09:30",1398310,9.24,60.47,7.162,1.232,6.139,99.7803,-1.26,0.017,85.3,0,109.7,13.34,-0.51,22.5
"2016-02-23 01:10:00",1398311,9.59,60.83,6.14,1.188,6.203,99.76954,-1.287,0.054,85.5,0,109.6,13.34,-0.54,22.8
"2016-02-23 01:10:30",1398312,9.76,58.37,6.58,1.139,5.986,99.76443,-1.3,0.04,85.6,0,109.6,13.34,-0.55,20.4
"2016-02-23 01:11:00",1398313,9.25,54.84,6.596,1.319,5.922,99.75595,-1.322,-0.005,85.8,0,109.6,13.34,-0.57,16.8
"2016-02-23 01:11:30",1398314,8.72,56.76,6.864,1.237,6.266,99.74858,-1.34,-0.002,85.9,0,109.6,13.34,-0.59,18.8
"2016-02-23 01:12:00",1398315,8.64,58.19,6.648,1.239,6.313,99.75056,-1.335,-0.02,86.1,0,109.6,13.34,-0.59,20.2
"2016-02-23 01:12:30",1398316,8.71,54.19,6.727,1.217,6.263,99.75142,-1.333,-0.033,86.2,0,109.6,13.34,-0.59,16.2
"2016-02-23 01:13:00",1398317,8.66,56.44,6.757,1.151,6.283,99.74546,-1.348,-0.02,86.4,0,109.6,13.34,-0.60,18.4
"2016-02-23 01:13:30",1398318,8.5,58.69,6.429,1.236,6.157,99.73725,-1.369,-0.022,86.5,0,109.6,13.34,-0.62,20.7
"2016-02-23 01:14:00",1398319,8.58,59.03,6.417,1.184,6.044,99.73441,-1.377,-0.084,86.6,0,109.6,13.34,-0.63,21.0
"2016-02-23 01:14:30",1398320,8.16,58.6,6.663,1.188,5.888,99.72253,-1.407,-0.079,86.7,0,109.6,13.34,-0.66,20.6
"2016-02-23 01:15:00",1398321,8.06,56.53,6.434,1.249,5.625,99.7197,-1.414,-0.075,86.8,0,109.6,13.34,-0.67,18.5
"2016-02-23 01:15:30",1398322,7.772,59.6,6.899,1.242,6.122,99.71997,-1.413,-0.09,86.9,0,109.6,13.34,-0.67,21.6
"2016-02-23 01:16:00",1398323,7.978,62.23,6.352,1.205,6.036,99.7197,-1.414,-0.096,87.1,0,109.6,13.34,-0.67,24.2
"2016-02-23 01:16:30",1398324,7.851,60.09,6.34,1.241,5.601,99.70724,-1.446,-0.108,87.2,0,109.6,13.34,-0.70,22.1
"2016-02-23 01:17:00",1398325,8.06,57.3,6.478,1.217,5.724,99.70129,-1.461,-0.143,87.3,0,109.6,13.34,-0.71,19.3
"2016-02-23 01:17:30",1398326,7.963,60.02,5.945,1.229,5.67,99.69166,-1.486,-0.127,87.3,0,109.6,13.34,-0.74,22.0
"2016-02-23 01:18:00",1398327,7.79,57.77,6.466,1.192,5.369,99.6877,-1.496,-0.167,87.4,0,109.6,13.34,-0.75,19.8
"2016-02-23 01:18:30",1398328,7.817,56.24,6.467,1.214,5.571,99.6891,-1.492,-0.17,87.5,0,109.6,13.35,-0.75,18.2
"2016-02-23 01:19:00",1398329,7.762,57.76,6.104,1.195,5.707,99.68713,-1.497,-0.166,87.6,0,109.6,13.35,-0.75,19.8
"2016-02-23 01:19:30",1398330,7.668,58.51,6.478,1.204,5.333,99.67863,-1.519,-0.207,87.7,0,109.6,13.34,-0.77,20.5
"2016-02-23 01:20:00",1398331,7.755,58.93,5.993,1.21,5.288,99.67239,-1.535,-0.189,87.8,0,109.6,13.35,-0.79,20.9
"2016-02-23 01:20:30",1398332,7.781,57.14,6.587,1.222,5.461,99.6622,-1.561,-0.212,87.9,0,109.6,13.35,-0.81,19.1
"2016-02-23 01:21:00",1398333,7.709,56.67,6.44,1.201,5.583,99.65823,-1.571,-0.228,87.9,0,109.6,13.35,-0.82,18.7
"2016-02-23 01:21:30",1398334,7.421,56.79,6.31,1.283,5.974,99.65852,-1.57,-0.24,88.1,0,109.6,13.35,-0.82,18.8
"2016-02-23 01:22:00",1398335,7.415,57.83,6.511,1.28,5.971,99.6588,-1.569,-0.249,88.2,0,109.6,13.35,-0.82,19.8
"2016-02-23 01:22:30",1398336,7.702,58.52,6.021,1.214,5.956,99.65965,-1.567,-0.231,88.2,0,109.6,13.35,-0.82,20.5
"2016-02-23 01:23:00",1398337,7.79,57.64,6.125,1.215,5.615,99.65936,-1.568,-0.248,88.3,0,109.6,13.35,-0.82,19.6
"2016-02-23 01:23:30",1398338,7.843,60.34,6.543,1.252,5.562,99.65257,-1.585,-0.268,88.4,0,109.6,13.35,-0.84,22.3
"2016-02-23 01:24:00",1398339,7.981,62.22,6.486,1.177,5.543,99.64548,-1.603,-0.3,88.4,0,109.6,13.35,-0.86,24.2
"2016-02-23 01:24:30",1398340,7.772,63.01,6.543,1.214,5.61,99.64095,-1.615,-0.285,88.5,0,109.6,13.35,-0.87,25.0
"2016-02-23 01:25:00",1398341,7.628,62.14,6.396,1.282,5.41,99.63557,-1.629,-0.315,88.6,0,109.6,13.35,-0.88,24.1
"2016-02-23 01:25:30",1398342,7.879,63.41,6.208,1.201,5.846,99.62878,-1.646,-0.295,88.7,0,109.6,13.35,-0.90,25.4
"2016-02-23 01:26:00",1398343,8.27,64.37,5.915,1.152,5.443,99.62622,-1.652,-0.301,88.7,0,109.6,13.35,-0.91,26.4
"2016-02-23 01:26:30",1398344,7.956,62.05,6.522,1.202,5.318,99.62622,-1.652,-0.343,88.8,0,109.6,13.35,-0.91,24.0
"2016-02-23 01:27:00",1398345,7.754,61.67,6.577,1.239,5.507,99.62622,-1.652,-0.344,88.8,0,109.6,13.35,-0.91,23.7
"2016-02-23 01:27:30",1398346,7.69,60.99,6.223,1.25,5.467,99.62622,-1.652,-0.34,88.9,0,109.5,13.35,-0.91,23.0
"2016-02-23 01:28:00",1398347,7.908,60.64,6.171,1.203,5.448,99.62595,-1.653,-0.35,88.9,0,109.6,13.35,-0.91,22.6
"2016-02-23 01:28:30",1398348,7.995,59.64,6.424,1.152,5.675,99.62283,-1.661,-0.365,89,0,109.6,13.35,-0.91,21.6
"2016-02-23 01:29:00",1398349,7.969,59.6,6.373,1.254,5.38,99.61405,-1.683,-0.342,89.1,0,109.6,13.34,-0.94,21.6
"2016-02-23 01:29:30",1398350,8.32,59.71,6.621,1.16,5.481,99.60896,-1.696,-0.398,89.1,0,109.6,13.34,-0.95,21.7
"2016-02-23 01:30:00",1398351,8.1,59.85,6.316,1.255,5.539,99.60697,-1.701,-0.397,89.2,0,109.6,13.34,-0.96,21.8
"2016-02-23 01:30:30",1398352,8.13,57.88,6.336,1.242,5.352,99.60726,-1.701,-0.379,89.2,0,109.6,13.34,-0.95,19.9
"2016-02-23 01:31:00",1398353,8.44,52.3,6.908,1.152,5.779,99.59989,-1.719,-0.407,89.3,0,109.6,13.34,-0.97,14.3
"2016-02-23 01:31:30",1398354,8.3,49.62,6.398,1.21,5.945,99.59451,-1.733,-0.411,89.4,0,109.6,13.34,-0.99,11.6
"2016-02-23 01:32:00",1398355,7.591,48.18,6.04,1.348,5.667,99.59254,-1.738,-0.41,89.4,0,109.6,13.34,-0.99,10.2
"2016-02-23 01:32:30",1398356,7.898,47.58,6.469,1.197,5.74,99.59225,-1.739,-0.438,89.5,0,109.6,13.34,-0.99,9.6
"2016-02-23 01:33:00",1398357,8.82,50.9,6.596,1.387,5.74,99.59225,-1.739,-0.421,89.6,0,109.6,13.34,-0.99,12.9
"2016-02-23 01:33:30",1398358,9.54,52.42,6.583,1.206,5.692,99.59196,-1.74,-0.463,89.6,0,109.6,13.34,-0.99,14.4
"2016-02-23 01:34:00",1398359,9.73,52.65,6.378,1.208,5.976,99.58602,-1.755,-0.455,89.7,0,109.6,13.35,-1.01,14.7
"2016-02-23 01:34:30",1398360,9.41,52.79,6.373,1.273,6.523,99.57752,-1.776,-0.452,89.8,0,109.6,13.35,-1.03,14.8
"2016-02-23 01:35:00",1398361,9.62,52.88,6.146,1.206,6.027,99.57441,-1.784,-0.448,89.8,0,109.6,13.35,-1.04,14.9
"2016-02-23 01:35:30",1398362,9.49,52.65,5.948,1.247,6.234,99.57442,-1.784,-0.471,89.9,0,109.6,13.35,-1.04,14.7
"2016-02-23 01:36:00",1398363,9.59,53.47,6.385,1.162,6.344,99.57384,-1.786,-0.465,89.9,0,109.6,13.35,-1.04,15.5
"2016-02-23 01:36:30",1398364,9.01,51.94,6.449,1.214,6.18,99.57526,-1.782,-0.493,90,0,109.6,13.35,-1.04,13.9
"2016-02-23 01:37:00",1398365,8.87,49.69,6.306,1.279,6.179,99.57497,-1.783,-0.488,90.1,0,109.6,13.35,-1.04,11.7
"2016-02-23 01:37:30",1398366,8.28,48.23,6.479,1.239,6.293,99.57413,-1.785,-0.464,90.2,0,109.6,13.35,-1.04,10.2
"2016-02-23 01:38:00",1398367,8.98,49.95,6.126,1.257,6.161,99.57497,-1.783,-0.472,90.2,0,109.6,13.35,-1.04,12.0
"2016-02-23 01:38:30",1398368,9.28,51.06,6.974,1.181,6.073,99.57639,-1.779,-0.486,90.3,0,109.6,13.35,-1.03,13.1
"2016-02-23 01:39:00",1398369,9.16,50.33,6.311,1.225,5.966,99.57497,-1.783,-0.479,90.4,0,109.6,13.35,-1.04,12.3
"2016-02-23 01:39:30",1398370,8.17,47.92,6.716,1.291,6.005,99.57442,-1.784,-0.489,90.4,0,109.6,13.35,-1.04,9.9
"2016-02-23 01:40:00",1398371,8.38,49.41,6.222,1.249,6.192,99.57526,-1.782,-0.483,90.5,0,109.6,13.35,-1.04,11.4
"2016-02-23 01:40:30",1398372,7.287,46.1,6.753,1.394,6.16,99.5761,-1.78,-0.502,90.5,0,109.6,13.35,-1.03,8.1
"2016-02-23 01:41:00",1398373,6.183,44.1,6.052,1.171,6.029,99.57922,-1.772,-0.454,90.6,0,109.6,13.35,-1.03,6.1
"2016-02-23 01:41:30",1398374,6.292,43.46,6.087,1.215,5.841,99.58517,-1.757,-0.486,90.7,0,109.6,13.35,-1.01,5.5
"2016-02-23 01:42:00",1398375,5.907,42.05,6.274,1.267,5.433,99.59055,-1.743,-0.494,90.7,0,109.6,13.35,-1.00,4.0
"2016-02-23 01:42:30",1398376,6.036,40.47,7.146,1.262,5.272,99.5931,-1.737,-0.471,90.8,0,109.6,13.35,-0.99,2.5
"2016-02-23 01:43:00",1398377,5.607,39.58,6.57,1.245,5.25,99.59338,-1.736,-0.475,90.8,0,109.6,13.35,-0.99,1.6
"2016-02-23 01:43:30",1398378,6.139,37.66,7.178,1.344,5.334,99.5931,-1.737,-0.487,90.9,0,109.6,13.35,-0.99,359.7
"2016-02-23 01:44:00",1398379,6.135,40.28,6.476,1.247,5.208,99.59451,-1.733,-0.438,91,0,109.6,13.35,-0.99,2.3
"2016-02-23 01:44:30",1398380,6.415,39.27,6.538,1.295,5.067,99.59563,-1.73,-0.446,91,0,109.6,13.35,-0.98,1.3
"2016-02-23 01:45:00",1398381,6.439,41.18,6.348,1.274,5.267,99.59507,-1.732,-0.467,91.1,0,109.6,13.35,-0.99,3.2
"2016-02-23 01:45:30",1398382,6.753,43.87,6.128,1.158,5.116,99.59366,-1.735,-0.444,91.1,0,109.6,13.35,-0.99,5.9
"2016-02-23 01:46:00",1398383,6.713,44.41,6.744,1.376,5.07,99.59451,-1.733,-0.447,91.2,0,109.6,13.35,-0.99,6.4
"2016-02-23 01:46:30",1398384,7.469,44.82,6.358,1.265,5.495,99.59535,-1.731,-0.453,91.2,0,109.6,13.35,-0.99,6.8
"2016-02-23 01:47:00",1398385,7.36,45.09,5.864,1.164,5.113,99.59986,-1.72,-0.434,91.3,0,109.6,13.35,-0.97,7.1
"2016-02-23 01:47:30",1398386,7.51,45.72,6.945,1.476,5.144,99.59702,-1.727,-0.438,91.3,0,109.6,13.35,-0.98,7.7
"2016-02-23 01:48:00",1398387,7.953,46.2,6.762,1.201,5.387,99.58796,-1.75,-0.459,91.3,0,109.6,13.34,-1.00,8.2